Overview Statistics Trail Chart Weather Telemetry Raw packets
 

This is the latest recevied weather packets stored in our database for station/object IR9AK-10. If no packets are shown the sender has not sent any weather packets the latest 10 day(s).

<< 41 42 43 44 45 46 47 >>
Time Temp. Humidity Pressure Rain* Wind** Luminosity Snow
1787963512 41.67° C 33% 1059.3 hPa - - - -
1787962912 41.67° C 36% 1059.4 hPa - - - -
1787962312 41.67° C 37% 1059.5 hPa - - - -
1787961714 41.67° C 39% 1059.5 hPa - - - -
1787961114 41.67° C 38% 1059.6 hPa - - - -
1787960515 41.11° C 31% 1059.7 hPa - - - -
1787959916 41.67° C 20% 1059.1 hPa - - - -
1787959316 41.11° C 19% 1059.2 hPa - - - -
1787958717 41.67° C 20% 1059.2 hPa - - - -
1787958119 41.67° C 20% 1059.4 hPa - - - -
1787957520 41.67° C 20% 1059.4 hPa - - - -
1787956921 41.67° C 20% 1059.5 hPa - - - -
1787956322 41.11° C 20% 1059.6 hPa - - - -
1787955723 41.67° C 21% 1059.8 hPa - - - -
1787955125 41.67° C 21% 1059.9 hPa - - - -
1787954526 41.67° C 22% 1059.9 hPa - - - -
1787953927 41.67° C 24% 1059.9 hPa - - - -
1787953327 41.67° C 26% 1059.9 hPa - - - -
1787952728 42.22° C 25% 1059.9 hPa - - - -
1787952128 41.67° C 19% 1060 hPa - - - -
1787951530 42.22° C 22% 1059.7 hPa - - - -
1787950930 42.78° C 18% 1059.7 hPa - - - -
1787950330 42.78° C 18% 1059.7 hPa - - - -
1787949730 42.78° C 18% 1059.8 hPa - - - -
1787949131 42.78° C 18% 1059.9 hPa - - - -

* Rain since midnight (hover to see other rain measurements)
** Current wind speed in m/s (hover to see current wind gust speed)